This demonstration page uses our WeatherBlox Daily Observations layout. Learn more.

Left ArrowRight Arrow

39.51506, -84.39828

Hourly Observations for May 10, 2015

Temp ( °F °C ) Dew Point ( °F °C ) Humidity (%) Winds ( mph kmh ) Pressure ( in mb ) Visibility ( mi km ) Precip ( " mm )
12:15 am 00:15 Clear 73 22.7 65 18.3 76 76 NE 5 7 30.06 1018 10 16 0.00 0.00
12:35 am 00:35 Clear 71 21.5 64 17.7 79 79 Calm 30.06 1018 10 16 0.00 0.00
12:55 am 00:55 Clear 69 20.8 65 18.2 85 85 Calm 30.06 1018 10 16 0.00 0.00
1:15 am 01:15 Clear 69 20.8 65 18.4 86 86 NW 3 6 30.06 1018 10 16 0.00 0.00
1:35 am 01:35 Clear 69 20.8 65 18.5 87 87 WNW 3 6 30.06 1018 10 16 0.00 0.00
1:55 am 01:55 Clear 69 20.8 65 18.5 87 87 Calm 30.06 1018 10 16 0.00 0.00
2:15 am 02:15 Partly Cloudy 69 20.8 65 18.5 87 87 Calm 30.06 1018 10 16 0.00 0.00
2:35 am 02:35 Partly Cloudy 69 20.8 65 18.3 86 86 Calm 30.06 1018 10 16 0.00 0.00
2:55 am 02:55 Mostly Cloudy 69 20.8 65 18.5 87 87 Calm 30.06 1018 10 16 0.00 0.00
3:15 am 03:15 Cloudy 69 20.8 65 18.6 87 87 Calm 30.06 1018 10 16 0.00 0.00
3:35 am 03:35 Cloudy 69 20.8 65 18.6 87 87 Calm 30.06 1018 10 16 0.00 0.00
3:55 am 03:55 Partly Cloudy 68 20 64 17.8 87 87 Calm 30.03 1017 7 11 0.00 0.00
4:15 am 04:15 Clear 67 19.7 63 17.4 87 87 Calm 30.06 1018 10 16 0.00 0.00
4:35 am 04:35 Mostly Cloudy 67 19.5 63 17.1 86 86 Calm 30.03 1017 10 16 0.00 0.00
4:55 am 04:55 Partly Cloudy 67 19.5 63 17.1 86 86 Calm 30.03 1017 10 16 0.00 0.00
5:15 am 05:15 Clear 67 19.5 63 17.2 87 87 Calm 30.03 1017 7 11 0.00 0.00
5:35 am 05:35 Clear with Mist and Fog 65 18.2 61 16.2 88 88 Calm 30.06 1018 5 8 0.00 0.00
5:55 am 05:55 Clear with Mist and Fog 64 17.7 60 15.7 88 88 Calm 30.03 1017 3 4 0.00 0.00
6:15 am 06:15 Partly Cloudy with Mist and Fog 64 17.9 61 16 89 89 Calm 30.03 1017 3 5 0.00 0.00
6:35 am 06:35 Mostly Cloudy with Mist and Fog 62 16.9 59 15 89 89 Calm 30.03 1017 2 3 0.00 0.00
6:55 am 06:55 Sunny with Mist and Fog 63 17.3 60 15.5 89 89 Calm 30.06 1018 3 5 0.00 0.00
7:15 am 07:15 Sunny with Mist and Fog 63 17.1 60 15.3 89 89 Calm 30.06 1018 4 6 0.00 0.00
7:35 am 07:35 Sunny with Mist and Fog 66 18.7 62 16.9 89 89 Calm 30.06 1018 5 8 0.00 0.00
7:55 am 07:55 Sunny 67 19.5 64 17.6 89 89 Calm 30.06 1018 7 11 0.00 0.00
8:15 am 08:15 Sunny 69 20.8 66 19 90 90 Calm 30.06 1018 7 11 0.00 0.00
8:35 am 08:35 Sunny 69 20.8 66 18.7 88 88 Calm 30.06 1018 10 16 0.00 0.00
8:55 am 08:55 Sunny 69 20.8 64 18 84 84 Calm 30.09 1019 10 16 0.00 0.00
9:15 am 09:15 Partly Cloudy 74 23.6 67 19.6 78 78 Calm 30.06 1018 7 11 0.00 0.00
9:35 am 09:35 Partly Cloudy 74 23.6 65 18.2 72 72 Calm 30.06 1018 10 16 0.00 0.00
9:55 am 09:55 Sunny 77 25.1 65 18.6 67 67 Calm 30.06 1018 10 16 0.00 0.00
10:15 am 10:15 Sunny 80 26.5 66 18.8 63 63 S 6 9 30.06 1018 10 16 0.00 0.00
10:35 am 10:35 Partly Cloudy 80 26.5 64 17.5 58 58 SSW 8 13 30.06 1018 10 16 0.00 0.00
10:55 am 10:55 Partly Cloudy 80 26.5 63 17.2 57 57 SSW 8 13 30.06 1018 10 16 0.00 0.00
11:15 am 11:15 Partly Cloudy 80 26.5 63 17.1 56 56 SSW 8 13 30.06 1018 10 16 0.00 0.00
11:35 am 11:35 Partly Cloudy 80 26.5 64 17.6 58 58 SW 7 11 30.06 1018 10 16 0.00 0.00
11:55 am 11:55 Mostly Cloudy 80 26.5 64 17.8 59 59 S 8 13 30.06 1018 10 16 0.00 0.00
12:15 pm 12:15 Mostly Cloudy 80 26.5 63 17.4 57 57 SSW 9 15 30.06 1018 10 16 0.00 0.00
12:35 pm 12:35 Mostly Cloudy 80 26.5 63 17.1 56 56 S 3 6 30.06 1018 10 16 0.00 0.00
12:55 pm 12:55 Mostly Cloudy 80 26.5 63 17 56 56 SSW 9 15 30.06 1018 10 16 0.00 0.00
1:15 pm 13:15 Mostly Cloudy 80 26.6 63 17 56 56 SSW 13 20 30.06 1018 10 16 0.00 0.00
1:35 pm 13:35 Partly Cloudy 81 27.3 63 17.3 54 54 SW 8 13 30.06 1018 10 16 0.00 0.00
1:55 pm 13:55 Partly Cloudy 83 28.6 61 16.3 47 47 SW 15 24 30.03 1017 10 16 0.00 0.00
2:15 pm 14:15 Mostly Cloudy 83 28.1 60 15.3 46 46 SW 10 17 30.03 1017 10 16 0.00 0.00
2:35 pm 14:35 Mostly Cloudy 82 28 57 14.1 43 43 SSW 16 26 30.03 1017 10 16 0.00 0.00
2:55 pm 14:55 Mostly Cloudy 83 28.5 57 14 41 41 SSW 15 24 30.00 1016 10 16 0.00 0.00
3:15 pm 15:15 Sunny 85 29.3 57 13.9 39 39 SSW 15 24 30.00 1016 10 16 0.00 0.00
3:35 pm 15:35 Sunny 85 29.2 59 14.8 41 41 SW 13 20 29.97 1015 10 16 0.00 0.00
3:55 pm 15:55 Mostly Cloudy 83 28.2 58 14.7 44 44 SSW 8 13 30.00 1016 10 16 0.00 0.00
4:15 pm 16:15 Mostly Cloudy 84 28.9 58 14.3 41 41 SW 10 17 29.97 1015 10 16 0.00 0.00
4:35 pm 16:35 Partly Cloudy 87 30.6 61 16 41 41 SSW 10 17 29.97 1015 10 16 0.00 0.00
4:55 pm 16:55 Sunny 85 29.4 58 14.3 40 40 SW 13 20 29.97 1015 10 16 0.00 0.00
5:15 pm 17:15 Sunny 85 29.7 57 13.9 38 38 WSW 14 22 29.97 1015 10 16 0.00 0.00
5:35 pm 17:35 Partly Cloudy 83 28.2 58 14.4 43 43 SW 8 13 30.00 1016 10 16 0.00 0.00
5:55 pm 17:55 Mostly Cloudy 83 28.4 59 14.8 43 43 SSW 13 20 30.00 1016 10 16 0.00 0.00
6:15 pm 18:15 Partly Cloudy 83 28.1 59 14.9 45 45 WSW 13 20 30.00 1016 10 16 0.00 0.00
6:35 pm 18:35 Sunny 81 27.2 57 13.9 44 44 SW 12 19 30.00 1016 10 16 0.00 0.00
6:55 pm 18:55 Sunny 82 28 55 12.8 39 39 SW 13 20 30.00 1016 10 16 0.00 0.00
7:15 pm 19:15 Sunny 80 26.8 58 14.3 46 46 SW 8 13 30.00 1016 10 16 0.00 0.00
7:35 pm 19:35 Partly Cloudy 80 26.5 58 14.2 47 47 SW 7 11 30.00 1016 10 16 0.00 0.00
7:55 pm 19:55 Partly Cloudy 80 26.5 58 14.6 48 48 SW 7 11 30.00 1016 10 16 0.00 0.00
8:15 pm 20:15 Sunny 80 26.5 60 15.5 51 51 SW 7 11 30.00 1016 10 16 0.00 0.00
8:35 pm 20:35 Sunny 77 25.1 61 16.1 57 57 SW 5 7 30.00 1016 10 16 0.00 0.00
8:55 pm 20:55 Clear 74 23.6 63 17.2 67 67 W 3 6 30.00 1016 10 16 0.00 0.00
9:15 pm 21:15 Clear 74 23.3 63 17.2 69 69 Calm 30.00 1016 10 16 0.00 0.00
9:35 pm 21:35 Clear 74 23.5 64 17.8 70 70 Calm 30.00 1016 10 16 0.00 0.00
9:55 pm 21:55 Clear 71 21.8 63 17.3 76 76 Calm 30.00 1016 10 16 0.00 0.00
10:15 pm 22:15 Partly Cloudy 72 22.3 64 17.8 76 76 Calm 30.00 1016 10 16 0.00 0.00
10:35 pm 22:35 Mostly Cloudy 69 20.8 63 17.3 80 80 Calm 30.03 1017 10 16 0.00 0.00
10:55 pm 22:55 Partly Cloudy 69 20.8 64 17.7 83 83 Calm 30.03 1017 10 16 0.00 0.00
11:15 pm 23:15 Partly Cloudy 69 20.8 64 17.6 82 82 Calm 30.03 1017 10 16 0.00 0.00
11:35 pm 23:35 Partly Cloudy 69 20.8 64 17.5 82 82 Calm 30.03 1017 10 16 0.00 0.00
11:55 pm 23:55 Partly Cloudy 69 20.8 63 17.2 80 80 Calm 30.03 1017 10 16 0.00 0.00

Powered by AerisWeather